Flag Weather past 2 weeks in Pembroke Pines, Florida, U.S.A.

Now
69 °F

Sunny.


Feels Like: 69 °F
Forecast: 53 / 74 °F
Wind: 16 mph from North

Location: North Perry Airport

Current Time: Nov 27, 2014 at 11:25:37 AM

Latest Report: Nov 27, 2014 at 10:53 AM


Visibility: 10 mi

Pressure: 30.27 "Hg

Humidity: 27%

Dew point: 34 °F

Location of Pembroke PinesLocation

Historic Weather in Pembroke Pines — Graph

°F

Pembroke Pines temperature yesterday

Maximum temperature yesterday: 80 °F (at 7:53 AM)
Minimum temperature yesterday: 57 °F (at 10:53 PM)
Average temperature yesterday: 70 °F

Past Weeks' High & Low Weather Summary

 TemperatureHumidityPressure
High88 °F (Nov 24, 12:53 PM)100% (Nov 19, 2:53 AM)30.28 "Hg (Nov 19, 2:53 AM)
Low53 °F (Nov 19, 2:53 AM)39% (Nov 27, 9:53 AM)29.93 "Hg (Nov 25, 2:53 PM)
Average73 °F78%30.08 "Hg
* Reported Nov 12 9:53 AM — Nov 27 9:53 AM, Pembroke Pines, Weather by CustomWeather, © 2014

Note: Actual official high and low records may vary slightly from our data, if they occured in-between our weather recording intervals... More about our weather records

Advertising

Pembroke Pines weather history for previous 24 hours

 ConditionsComfort  
Time TempWeatherWind HumidityBarometerVisibility
9:53 AM
Nov 27
65 °FSunny.13 mph39%30.28 "Hg10 mi
8:53 AM61 °FSunny.15 mph41%30.28 "Hg10 mi
7:53 AM57 °FSunny.10 mph62%30.27 "Hg10 mi
6:53 AM54 °FSunny.13 mph72%30.25 "Hg10 mi
5:53 AM55 °FClear.13 mph72%30.23 "Hg10 mi
4:53 AM54 °FClear.10 mph77%30.21 "Hg10 mi
3:53 AM55 °FClear.14 mph74%30.20 "Hg10 mi
2:53 AM55 °FClear.13 mph74%30.19 "Hg10 mi
1:53 AM56 °FClear.14 mph72%30.19 "Hg10 mi
12:53 AM57 °FClear.10 mph69%30.19 "Hg10 mi
11:53 PM
Nov 26
57 °FClear.10 mph69%30.19 "Hg10 mi
10:53 PM57 °FClear.12 mph72%30.20 "Hg10 mi
9:53 PM59 °FClear.10 mph62%30.19 "Hg10 mi
8:53 PM60 °FClear.10 mph65%30.18 "Hg10 mi
7:53 PM61 °FClear.13 mph70%30.17 "Hg10 mi
6:53 PM62 °FPartly cloudy.12 mph65%30.16 "Hg10 mi
5:53 PM63 °FOvercast.13 mph68%30.14 "Hg10 mi
4:53 PM64 °FOvercast.18 mph68%30.13 "Hg10 mi
3:53 PM64 °FPartly sunny.16 mph75%30.11 "Hg10 mi
2:53 PM64 °FOvercast.20 mph81%30.10 "Hg10 mi
1:53 PM68 °FOvercast.15 mph76%30.08 "Hg10 mi
12:53 PM70 °FOvercast.16 mph79%30.07 "Hg10 mi
11:53 AM71 °FOvercast.17 mph78%30.09 "Hg10 mi
Weather by CustomWeather, © 2014

See weather overviewHow to use our weather pages